STARLINK-1805, 46705

Orbit data source: Space-Track

STARLINK-1805, 46705 is a payload satellite owned by SpaceX/Seattle (US) in LEO that was launched on Sun, 18 Oct 2020 UTC via an FALCON 9 launch vehicle from the Air Force Eastern Test Range (AFETR). Payload-class satellites include a variety of spacecraft equipped with specific instruments for various scientific and technological missions. These include communications satellites like Starlink; space stations such as the ISS; scientific satellites like the Hubble; Earth observation satellites from companies like Planet Labs, Umbra, and HawkEye 360; GPS; miniature CubeSats for education and research; and military/defense satellites.

Loading next visibility...
Identifier
46705, 2020-073AM
Orbit
LEO
Country
Flag of USUS
Related business
Manufacturer
SpaceX/Seattle
Mission
Partially operational Commercial Communications
Bus & Motor
STARLINK, Unknown motor
Mass
260 kg wet, ~248 kg dry
Launch date (UTC)
2020-10-18 (5 years ago)
Launch vehicle
FALCON 9
Launch site
Air Force Eastern Test Range (AFETR)
Object type
Payload
Rocket body
Debris
Shape & HBR
Box + 1 Pan, 10.1 m
Radar Cross Section
13.562 m², Large (>1 m²)

Expand to show TLE details & history
Last TLE update: 5 hours ago

TLE from 5 hours ago
0 STARLINK-1805
1 46705U 20073AM  26038.33335648  .00188761  00000-0  38005-2 0  9997
2 46705  53.0554  28.9554 0002131  83.7080  73.8256 15.45407633  5747
Epoch: 2026-02-07T08:00Z
TLE epoch observation values (Epoch: 2026-02-07T08:00:01.999Z)
Latitude
17.79506°
Longitude
-62.40015°
Altitude
430.083 km
Speed
7.657 km/s
True Right ascension
13h 00m 15s
True Declination
17° 41' 26"
Sunlit
Object was in full shadow at epoch
Visualization orbit readout
Latitude
Unknown
Longitude
Unknown
Altitude
Unknown
Speed
Unknown
Apparent Right ascension
Unknown
Apparent Declination
Unknown
Sunlit
N/A
Visualization observer readout
Local Sidereal Time
15:24:56
Azimuth
Unknown
Elevation
Unknown
Doppler factor
Unknown
Orbital elements
Apogee altitude
431.907 km
Perigee altitude
429.005 km
Semi-major axis
6,808.593 km
Eccentricity
0.00021
Inclination
53.0554°
RAAN
28.9554°
Arg. of periapsis
83.708°
True anomaly
73.84905°
Mean anomaly
73.8256°
Eccentric anomaly
73.83733°
Mean motion
3.86329 °/min
Orbital period
93.18 mins
BSTAR
0.0038005
Loading maneuver chart data...
Computing Atmospheric mass density...

Documentation

Showing up to 5 results
|